Weather History for VTBU - December, 2013

Change the Weather History Date:

Thursday, December 12, 2013

  Actual Average Record
Temperature  
Mean Temperature 79 °F -  
Max Temperature 89 °F 88 °F 95 °F (2002)
Min Temperature 69 °F 72 °F 66 °F (2011)
Cooling Degree Days 14    
Growing Degree Days 29 (Base 50)    
Moisture  
Dew Point 67 °F    
Average Humidity 70    
Maximum Humidity 88    
Minimum Humidity 40    
Precipitation  
Precipitation 0.00 in - - ()
Sea Level Pressure  
Sea Level Pressure 29.79 in    
Wind  
Wind Speed 2 mph ()    
Max Wind Speed 8 mph    
Max Gust Speed -    
Visibility 2.0 miles    
Events      
Averages and records for this station are not official NWS values.
T = Trace of Precipitation, MM = Missing Value Source: Averaged Metar Reports

Daily Weather History Graph

Daily Weather History Graph

Search for Another Location

Airport or City:

Trip Planner

Search our weather history database for the weather conditions in past years. The results will help you decide how hot, cold, wet, or windy it might be!

Date:

Astronomy

Dec. 12, 2013 Rise Set
Actual Time 6:27 AM ICT 5:51 PM ICT
Civil Twilight 6:04 AM ICT 6:14 PM ICT
Nautical Twilight 5:38 AM ICT 6:40 PM ICT
Astronomical Twilight 5:12 AM ICT 7:07 PM ICT
Moon 2:05 PM ICT (12/12) 1:57 AM ICT (12/12)
Length of Visible Light 12h 09m
Length of Day
11h 23m
Waxing Gibbous, 76% of the Moon is Illuminated
Dec 12
Waxing Gibbous
Dec 17
Full
Dec 25
Last Quarter
Jan 1
New
Jan 8
First Quarter

Hourly Weather History & Observations

Time (ICT) Temp. Heat Index Dew Point Humidity Pressure Visibility Wind Dir Wind Speed Gust Speed Precip Events Conditions
12:00 AM 71.6 °F - 68.0 °F 88% 29.80 in 0.9 mi Calm Calm - N/A   Mist
12:30 AM 71.6 °F - 68.0 °F 88% 29.80 in 0.9 mi Calm Calm - N/A   Mist
1:00 AM 73 °F - 70 °F 87% 29.80 in 5 mi Calm Calm - -   Mist
1:00 AM 71.6 °F - 66.2 °F 83% 29.80 in 0.9 mi Calm Calm - N/A   Mist
1:30 AM 71.6 °F - 66.2 °F 83% 29.80 in 0.9 mi Calm Calm - N/A   Mist
2:00 AM 71.6 °F - 68.0 °F 88% 29.77 in 0.9 mi North 3.5 mph - N/A   Mist
2:30 AM 71.6 °F - 68.0 °F 88% 29.77 in 0.9 mi NNW 3.5 mph - N/A   Mist
3:00 AM 71.6 °F - 66.2 °F 83% 29.77 in 0.9 mi North 3.5 mph - N/A   Mist
3:30 AM 71.6 °F - 66.2 °F 83% 29.77 in 0.9 mi NNE 3.5 mph - N/A   Mist
4:00 AM 72 °F - 69 °F 87% 29.77 in 5 mi NNW 3.5 mph - -   Mist
4:00 AM 71.6 °F - 66.2 °F 83% 29.77 in 0.6 mi Calm Calm - N/A   Mist
4:30 AM 69.8 °F - 66.2 °F 88% 29.77 in 0.6 mi Calm Calm - N/A   Mist
5:00 AM 69.8 °F - 66.2 °F 88% 29.77 in 0.6 mi Calm Calm - N/A   Mist
5:30 AM 69.8 °F - 66.2 °F 88% 29.77 in 0.6 mi Calm Calm - N/A   Mist
6:00 AM 69.8 °F - 66.2 °F 88% 29.77 in 0.6 mi North 3.5 mph - N/A   Mist
6:30 AM 69.8 °F - 66.2 °F 88% 29.80 in 0.6 mi NNW 4.6 mph - N/A   Mist
7:00 AM 69.8 °F - 66.2 °F 88% 29.80 in 0.6 mi NNW 3.5 mph - N/A   Mist
7:30 AM 71.6 °F - 66.2 °F 83% 29.80 in 0.6 mi NNW 4.6 mph - N/A   Mist
8:00 AM 73.4 °F - 66.2 °F 78% 29.83 in 0.6 mi NNW 4.6 mph - N/A   Mist
8:30 AM 75.2 °F - 68.0 °F 78% 29.83 in 1.2 mi North 3.5 mph - N/A   Mist
9:00 AM 80.6 °F 83.2 °F 68.0 °F 65% 29.83 in 1.9 mi NNE 3.5 mph - N/A   Haze
9:30 AM 84.2 °F 86.6 °F 66.2 °F 55% 29.86 in 2.5 mi ENE 4.6 mph - N/A   Haze
10:00 AM 86.0 °F 88.2 °F 66.2 °F 51% 29.86 in 2.5 mi ENE 3.5 mph - N/A   Haze
10:30 AM 86.0 °F 87.3 °F 64.4 °F 48% 29.83 in 2.5 mi Calm Calm - N/A   Haze
11:00 AM 87.8 °F 89.4 °F 64.4 °F 46% 29.83 in 2.5 mi Calm Calm - N/A   Haze
11:30 AM 87.8 °F 90.4 °F 66.2 °F 49% 29.83 in 2.5 mi Calm Calm - N/A   Haze
12:00 PM 89.6 °F 92.2 °F 66.2 °F 46% 29.83 in 2.5 mi SW 4.6 mph - N/A   Haze
12:30 PM 87.8 °F 87.6 °F 60.8 °F 40% 29.80 in 3.1 mi WSW 4.6 mph - N/A   Haze
1:00 PM 86 °F - 70 °F 50% 29.78 in 4 mi SSW 3.5 mph - -   Haze
1:00 PM 89.6 °F 92.2 °F 66.2 °F 46% 29.80 in 3.1 mi WSW 3.5 mph - N/A   Haze
1:30 PM 87.8 °F 90.4 °F 66.2 °F 49% 29.77 in 3.1 mi WSW 6.9 mph - N/A   Haze
2:00 PM 86.0 °F 88.2 °F 66.2 °F 51% 29.74 in 3.1 mi SSW 6.9 mph - N/A   Haze
2:30 PM 87.8 °F 90.4 °F 66.2 °F 49% 29.74 in 3.1 mi SW 6.9 mph - N/A   Haze
3:00 PM 86.0 °F 89.4 °F 68.0 °F 55% 29.74 in 3.1 mi SSW 6.9 mph - N/A   Haze
3:30 PM 86.0 °F 88.2 °F 66.2 °F 51% 29.74 in 3.1 mi WSW 6.9 mph - N/A   Haze
4:00 PM 86 °F - 69 °F 47% 29.74 in 4 mi SE 8.1 mph - -   Haze
4:00 PM 87.8 °F 90.4 °F 66.2 °F 49% 29.74 in 3.1 mi SW 4.6 mph - N/A   Haze
4:30 PM 87.8 °F 89.4 °F 64.4 °F 46% 29.74 in 3.1 mi West 4.6 mph - N/A   Haze
5:00 PM 86.0 °F 88.2 °F 66.2 °F 51% 29.74 in 3.1 mi West 4.6 mph - N/A   Haze
5:30 PM 82.4 °F 84.6 °F 66.2 °F 58% 29.74 in 2.5 mi West 3.5 mph - N/A   Haze
6:00 PM 80.6 °F 82.7 °F 66.2 °F 61% 29.77 in 1.9 mi West 2.3 mph - N/A   Haze
6:30 PM 80.6 °F 83.2 °F 68.0 °F 65% 29.77 in 1.9 mi ENE 3.5 mph - N/A   Haze
7:00 PM 78.8 °F - 68.0 °F 69% 29.77 in 1.9 mi NE 2.3 mph - N/A   Haze
7:30 PM 78.8 °F - 68.0 °F 69% 29.80 in 1.9 mi ENE 3.5 mph - N/A   Mist
8:00 PM 78.8 °F - 68.0 °F 69% 29.80 in 1.9 mi NE 6.9 mph - N/A   Haze
8:30 PM 75.2 °F - 68.0 °F 78% 29.80 in 1.2 mi NE 3.5 mph - N/A   Mist
9:00 PM 75.2 °F - 68.0 °F 78% 29.83 in 1.2 mi NNE 2.3 mph - N/A   Mist
9:30 PM 73.4 °F - 68.0 °F 83% 29.83 in 1.2 mi North 3.5 mph - N/A   Mist
10:00 PM 76 °F - 71 °F 81% 29.83 in 4 mi Calm Calm - -   Mist
10:00 PM 73.4 °F - 64.4 °F 73% 29.83 in 1.2 mi NNE 3.5 mph - N/A   Mist
10:30 PM 71.6 °F - 66.2 °F 83% 29.83 in 1.2 mi North 3.5 mph - N/A   Mist
11:00 PM 71.6 °F - 68.0 °F 88% 29.83 in 0.9 mi North 3.5 mph - N/A   Mist
11:30 PM 71.6 °F - 68.0 °F 88% 29.83 in 0.9 mi North 3.5 mph - N/A   Mist